Flood From: 22-02-2018 16:00 Until: 23-02-2018 16:00 warning for: Flood Level: Yellow info button

Although rather usual in this region, locally or potentially dangerous phenomena are expected. (such as local winds, summer thunderstorms, rising streams or high waves) Be aware and pay attention to the latest weather updates, especially if you carry out activities exposed to weather or close to a stream or shoreline. 


Meteo18 Weather Cam more information Meteo18 Weather Cam


Thunder radar more information blitzortung!


Rain radar more information rain snow radar


Visit our other weather sites:

Template documentation
and downloads

And another site



Weather Underground History page Text

Daily Summary for May 1, 2017 Units:  English    Metric   Both
« Previous Day
Next Day »
Daily Weekly Monthly Yearly Custom
  High: Low: Average:
Temperature: TemperatureC °F 6.3 °F 9.1 °F
Dew Point: DewpointC °F 3.3 °F 5.3 °F
Humidity: Humidity % 53 % 78 %
Wind Speed: WindSpeedKMH mph 0.0 mph 10.9 mph
Wind Gust: WindSpeedGustKMH mph - -
Wind:- - SW
Pressure: PressurehPa in 1007.0 in -
Precipitation: 0.5 in    
Historical Graphs
 
 
Tabular Data for May 1, 2017
Time Temperature Dew Point Pressure Wind Wind Speed Wind Gust Humidity Rainfall Rate (Hourly)
TemperatureC °F DewpointC °F PressurehPa in Calm     Humidity % HourlyPrecipMM in
00:02 7.1 °F 5.7 °F 1007.7 in SW 9.7 mph 20.9 mph 91 % 0.0 in
00:12 7.0 °F 5.5 °F 1007.0 in SW 8.0 mph 25.7 mph 90 % 0.0 in
00:22 6.9 °F 5.5 °F 1007.3 in SSW 9.7 mph 25.7 mph 91 % 0.0 in
00:32 6.8 °F 5.3 °F 1007.3 in South 11.3 mph 22.5 mph 90 % 0.0 in
00:37 6.8 °F 5.3 °F 1007.3 in South 6.4 mph 20.9 mph 90 % 0.0 in
00:42 6.8 °F 5.4 °F 1007.3 in SSW 4.8 mph 20.9 mph 91 % 0.0 in
00:52 6.7 °F 5.3 °F 1007.3 in South 12.9 mph 24.1 mph 91 % 0.0 in
01:02 6.7 °F 5.3 °F 1007.3 in South 9.7 mph 24.1 mph 91 % 0.0 in
01:12 6.6 °F 5.2 °F 1007.3 in SSW 14.5 mph 22.5 mph 91 % 0.0 in
01:17 6.6 °F 5.2 °F 1007.7 in SSE 6.4 mph 22.5 mph 91 % 0.0 in
01:22 6.6 °F 5.2 °F 1007.7 in SSW 12.9 mph 20.9 mph 91 % 0.0 in
01:32 6.6 °F 5.1 °F 1007.7 in SSW 9.7 mph 20.9 mph 90 % 0.0 in
01:42 6.6 °F 5.2 °F 1007.7 in SSW 6.4 mph 24.1 mph 91 % 0.0 in
01:52 6.6 °F 5.1 °F 1008.0 in South 16.1 mph 22.5 mph 90 % 0.0 in
01:57 6.6 °F 5.1 °F 1008.0 in SSW 9.7 mph 22.5 mph 90 % 0.0 in
02:02 6.6 °F 5.1 °F 1007.7 in SW 4.8 mph 22.5 mph 90 % 0.0 in
02:07 6.6 °F 5.1 °F 1007.7 in South 11.3 mph 22.5 mph 90 % 0.0 in
02:12 6.5 °F 5.0 °F 1008.0 in SSW 8.0 mph 22.5 mph 90 % 0.0 in
02:17 6.5 °F 5.0 °F 1008.0 in South 9.7 mph 19.3 mph 90 % 0.0 in
02:22 6.6 °F 5.1 °F 1008.0 in SSE 6.4 mph 19.3 mph 90 % 0.0 in
02:27 6.5 °F 5.0 °F 1008.0 in SW 9.7 mph 16.1 mph 90 % 0.0 in
02:32 6.6 °F 5.1 °F 1008.4 in SW 8.0 mph 16.1 mph 90 % 0.0 in
02:42 6.6 °F 5.1 °F 1008.0 in SE 9.7 mph 19.3 mph 90 % 0.0 in
02:47 6.7 °F 5.2 °F 1008.4 in SW 12.9 mph 20.9 mph 90 % 0.0 in
02:52 6.7 °F 5.2 °F 1008.4 in South 12.9 mph 20.9 mph 90 % 0.0 in
03:02 6.8 °F 5.3 °F 1008.4 in SW 24.1 mph 24.1 mph 90 % 0.0 in
03:07 6.8 °F 5.3 °F 1008.4 in SSW 9.7 mph 24.1 mph 90 % 0.0 in
03:12 6.7 °F 5.2 °F 1008.4 in SSW 19.3 mph 24.1 mph 90 % 0.0 in
03:17 6.7 °F 5.2 °F 1008.7 in SSW 11.3 mph 24.1 mph 90 % 0.0 in
03:22 6.7 °F 5.2 °F 1008.7 in SSW 11.3 mph 20.9 mph 90 % 0.0 in
03:27 6.7 °F 5.3 °F 1008.7 in South 8.0 mph 20.9 mph 91 % 0.0 in
03:32 6.7 °F 5.3 °F 1008.7 in SW 14.5 mph 19.3 mph 91 % 0.0 in
03:37 6.7 °F 5.3 °F 1008.7 in SE 9.7 mph 20.9 mph 91 % 0.0 in
03:42 6.7 °F 5.3 °F 1008.7 in SSW 9.7 mph 20.9 mph 91 % 0.0 in
03:47 6.7 °F 5.3 °F 1009.0 in SSW 8.0 mph 20.9 mph 91 % 0.0 in
03:52 6.6 °F 5.2 °F 1009.0 in SSW 12.9 mph 20.9 mph 91 % 0.0 in
03:57 6.6 °F 5.1 °F 1009.0 in SSW 11.3 mph 22.5 mph 90 % 0.0 in
04:02 6.7 °F 5.2 °F 1009.0 in SW 12.9 mph 24.1 mph 90 % 0.0 in
04:12 6.6 °F 4.9 °F 1009.4 in SSW 12.9 mph 24.1 mph 89 % 0.0 in
04:17 6.6 °F 4.9 °F 1009.4 in WSW 8.0 mph 20.9 mph 89 % 0.0 in
04:22 6.6 °F 4.9 °F 1009.4 in SW 9.7 mph 20.9 mph 89 % 0.0 in
04:27 6.6 °F 4.9 °F 1009.4 in SSW 9.7 mph 19.3 mph 89 % 0.0 in
04:37 6.6 °F 4.9 °F 1009.4 in SW 8.0 mph 20.9 mph 89 % 0.0 in
04:42 6.6 °F 4.9 °F 1009.4 in SSE 12.9 mph 25.7 mph 89 % 0.0 in
04:47 6.6 °F 4.9 °F 1009.4 in WSW 16.1 mph 25.7 mph 89 % 0.0 in
04:52 6.6 °F 4.9 °F 1009.7 in SW 12.9 mph 25.7 mph 89 % 0.0 in
04:57 6.6 °F 5.1 °F 1009.7 in SW 16.1 mph 22.5 mph 90 % 0.0 in
05:02 6.6 °F 5.1 °F 1009.7 in SW 19.3 mph 22.5 mph 90 % 0.0 in
05:07 6.6 °F 5.1 °F 1010.0 in SW 12.9 mph 22.5 mph 90 % 0.0 in
05:12 6.6 °F 5.2 °F 1010.0 in SW 8.0 mph 22.5 mph 91 % 0.0 in
05:17 6.6 °F 5.2 °F 1010.0 in WSW 12.9 mph 24.1 mph 91 % 0.0 in
05:22 6.7 °F 5.2 °F 1010.0 in SW 9.7 mph 24.1 mph 90 % 0.0 in
05:27 6.6 °F 5.1 °F 1010.0 in WSW 11.3 mph 24.1 mph 90 % 0.0 in
05:32 6.6 °F 5.1 °F 1010.4 in West 14.5 mph 24.1 mph 90 % 0.0 in
05:37 6.5 °F 5.1 °F 1010.4 in SSW 9.7 mph 22.5 mph 91 % 0.0 in
05:42 6.4 °F 5.0 °F 1010.4 in SW 16.1 mph 22.5 mph 91 % 0.0 in
05:47 6.4 °F 5.0 °F 1010.4 in SW 9.7 mph 25.7 mph 91 % 0.0 in
05:57 6.4 °F 5.2 °F 1010.4 in SW 8.0 mph 22.5 mph 92 % 0.0 in
06:02 6.3 °F 5.1 °F 1010.7 in SW 9.7 mph 22.5 mph 92 % 0.0 in
06:07 6.4 °F 5.2 °F 1010.7 in SW 14.5 mph 24.1 mph 92 % 0.0 in
06:12 6.4 °F 5.2 °F 1011.1 in SW 9.7 mph 24.1 mph 92 % 0.0 in
06:17 6.4 °F 5.2 °F 1011.1 in WSW 11.3 mph 22.5 mph 92 % 0.0 in
06:22 6.4 °F 5.2 °F 1011.1 in SW 12.9 mph 22.5 mph 92 % 0.0 in
06:27 6.4 °F 5.4 °F 1011.1 in SSW 8.0 mph 22.5 mph 93 % 0.0 in
06:32 6.5 °F 5.3 °F 1011.1 in WSW 6.4 mph 22.5 mph 92 % 0.0 in
06:37 6.5 °F 5.3 °F 1011.1 in WSW 14.5 mph 22.5 mph 92 % 0.0 in
06:42 6.5 °F 5.3 °F 1011.4 in SW 11.3 mph 19.3 mph 92 % 0.0 in
06:47 6.6 °F 5.4 °F 1011.4 in SW 12.9 mph 19.3 mph 92 % 0.0 in
06:52 6.6 °F 5.4 °F 1011.4 in WSW 14.5 mph 24.1 mph 92 % 0.0 in
06:57 6.6 °F 5.4 °F 1011.4 in SW 11.3 mph 25.7 mph 92 % 0.0 in
07:02 6.7 °F 5.5 °F 1011.7 in WSW 16.1 mph 25.7 mph 92 % 0.0 in
07:12 6.7 °F 5.5 °F 1011.7 in SW 12.9 mph 20.9 mph 92 % 0.0 in
07:17 6.7 °F 5.5 °F 1011.7 in WSW 16.1 mph 19.3 mph 92 % 0.0 in
07:27 6.8 °F 5.6 °F 1011.7 in SW 14.5 mph 20.9 mph 92 % 0.0 in
07:32 6.8 °F 5.6 °F 1011.7 in WSW 16.1 mph 20.9 mph 92 % 0.0 in
07:37 6.8 °F 5.4 °F 1012.1 in SW 12.9 mph 24.1 mph 91 % 0.0 in
07:42 6.8 °F 5.4 °F 1012.1 in SW 14.5 mph 24.1 mph 91 % 0.0 in
07:47 6.9 °F 5.5 °F 1012.1 in SW 9.7 mph 24.1 mph 91 % 0.0 in
07:52 6.9 °F 5.5 °F 1012.4 in WSW 6.4 mph 22.5 mph 91 % 0.0 in
07:57 6.9 °F 5.5 °F 1012.4 in SW 4.8 mph 20.9 mph 91 % 0.0 in
08:02 6.9 °F 5.5 °F 1012.4 in WSW 6.4 mph 20.9 mph 91 % 0.0 in
08:12 6.9 °F 5.5 °F 1012.8 in WSW 6.4 mph 20.9 mph 91 % 0.0 in
08:17 7.0 °F 5.6 °F 1012.8 in SW 4.8 mph 20.9 mph 91 % 0.0 in
08:22 7.1 °F 5.6 °F 1012.8 in SW 19.3 mph 20.9 mph 90 % 0.0 in
08:27 7.1 °F 5.6 °F 1012.8 in WSW 8.0 mph 24.1 mph 90 % 0.0 in
08:32 7.1 °F 5.6 °F 1013.1 in SW 12.9 mph 24.1 mph 90 % 0.0 in
08:37 7.1 °F 5.6 °F 1013.1 in SW 9.7 mph 24.1 mph 90 % 0.0 in
08:42 7.2 °F 5.7 °F 1013.1 in SW 11.3 mph 24.1 mph 90 % 0.0 in
08:47 7.2 °F 5.7 °F 1013.1 in WSW 6.4 mph 22.5 mph 90 % 0.0 in
08:52 7.3 °F 5.6 °F 1013.1 in SW 22.5 mph 24.1 mph 89 % 0.0 in
08:57 7.4 °F 5.7 °F 1013.4 in SW 4.8 mph 24.1 mph 89 % 0.0 in
09:02 7.4 °F 5.5 °F 1013.4 in WSW 20.9 mph 24.1 mph 88 % 0.0 in
09:07 7.5 °F 5.6 °F 1013.4 in West 8.0 mph 32.2 mph 88 % 0.0 in
09:12 7.6 °F 5.7 °F 1013.4 in SW 6.4 mph 32.2 mph 88 % 0.0 in
09:17 7.8 °F 5.8 °F 1013.8 in WSW 9.7 mph 24.1 mph 87 % 0.0 in
09:22 7.9 °F 5.9 °F 1013.8 in WSW 6.4 mph 24.1 mph 87 % 0.0 in
09:32 8.2 °F 5.8 °F 1013.8 in WSW 6.4 mph 19.3 mph 85 % 0.0 in
09:37 8.4 °F 6.0 °F 1013.4 in SW 14.5 mph 19.3 mph 85 % 0.0 in
09:42 8.8 °F 6.2 °F 1013.4 in SW 11.3 mph 22.5 mph 84 % 0.0 in
09:47 8.9 °F 6.3 °F 1013.4 in SW 16.1 mph 22.5 mph 84 % 0.0 in
09:57 9.2 °F 6.5 °F 1013.8 in SSW 14.5 mph 30.6 mph 83 % 0.0 in
10:02 9.3 °F 6.6 °F 1013.8 in SW 3.2 mph 30.6 mph 83 % 0.0 in
10:12 9.6 °F 6.3 °F 1013.8 in SW 6.4 mph 25.7 mph 80 % 0.0 in
10:17 9.6 °F 6.0 °F 1013.8 in West 20.9 mph 25.7 mph 78 % 0.0 in
10:22 9.3 °F 5.5 °F 1013.8 in West 11.3 mph 24.1 mph 77 % 0.0 in
10:32 9.6 °F 6.1 °F 1014.1 in West 8.0 mph 33.8 mph 79 % 0.0 in
10:37 10.0 °F 6.7 °F 1014.1 in WSW 14.5 mph 25.7 mph 80 % 0.0 in
10:42 10.3 °F 6.6 °F 1014.1 in SW 16.1 mph 25.7 mph 78 % 0.0 in
10:52 10.5 °F 6.4 °F 1014.1 in SW 11.3 mph 27.4 mph 76 % 0.0 in
10:57 10.4 °F 6.0 °F 1014.1 in WSW 11.3 mph 29.0 mph 74 % 0.0 in
11:02 10.6 °F 5.8 °F 1014.1 in WSW 16.1 mph 29.0 mph 72 % 0.0 in
11:07 10.6 °F 5.6 °F 1014.1 in WNW 9.7 mph 29.0 mph 71 % 0.0 in
11:12 10.9 °F 6.3 °F 1014.1 in WSW 14.5 mph 29.0 mph 73 % 0.0 in
11:17 10.9 °F 6.1 °F 1013.8 in West 12.9 mph 32.2 mph 72 % 0.0 in
11:22 10.9 °F 5.4 °F 1014.1 in WSW 25.7 mph 32.2 mph 69 % 0.0 in
11:27 10.9 °F 5.6 °F 1014.1 in SW 17.7 mph 32.2 mph 70 % 0.0 in
11:32 10.9 °F 5.2 °F 1014.1 in West 9.7 mph 32.2 mph 68 % 0.0 in
11:42 11.2 °F 5.1 °F 1014.1 in West 17.7 mph 32.2 mph 66 % 0.0 in
11:52 11.5 °F 4.9 °F 1014.1 in SW 30.6 mph 32.2 mph 64 % 0.0 in
11:57 11.4 °F 5.3 °F 1014.1 in West 16.1 mph 37.0 mph 66 % 0.0 in
12:02 11.7 °F 5.6 °F 1014.1 in WSW 27.4 mph 38.6 mph 66 % 0.0 in
12:12 11.8 °F 6.1 °F 1014.1 in WSW 9.7 mph 38.6 mph 68 % 0.0 in
12:17 12.1 °F 6.2 °F 1014.1 in West 20.9 mph 38.6 mph 67 % 0.0 in
12:22 11.8 °F 5.4 °F 1014.1 in WSW 22.5 mph 37.0 mph 65 % 0.0 in
12:27 11.9 °F 5.3 °F 1014.1 in West 22.5 mph 32.2 mph 64 % 0.0 in
12:32 12.0 °F 5.4 °F 1014.1 in WSW 29.0 mph 32.2 mph 64 % 0.0 in
12:37 11.9 °F 5.3 °F 1014.1 in West 14.5 mph 32.2 mph 64 % 0.0 in
12:42 12.3 °F 5.5 °F 1014.1 in WNW 17.7 mph 30.6 mph 63 % 0.0 in
12:47 12.1 °F 5.0 °F 1014.1 in WSW 11.3 mph 35.4 mph 62 % 0.0 in
12:52 12.2 °F 5.8 °F 1014.1 in West 19.3 mph 35.4 mph 65 % 0.0 in
12:57 12.3 °F 5.7 °F 1014.1 in West 14.5 mph 35.4 mph 64 % 0.0 in
13:02 12.1 °F 5.0 °F 1014.1 in SW 8.0 mph 27.4 mph 62 % 0.0 in
13:12 12.1 °F 5.9 °F 1014.1 in West 8.0 mph 30.6 mph 66 % 0.0 in
13:17 12.2 °F 5.6 °F 1014.4 in West 14.5 mph 30.6 mph 64 % 0.0 in
13:22 12.6 °F 6.8 °F 1014.4 in WSW 14.5 mph 27.4 mph 68 % 0.0 in
13:32 12.2 °F 5.4 °F 1014.4 in West 14.5 mph 29.0 mph 63 % 0.0 in
13:37 12.1 °F 5.3 °F 1014.4 in West 22.5 mph 29.0 mph 63 % 0.0 in
13:42 12.2 °F 5.6 °F 1014.4 in WSW 12.9 mph 27.4 mph 64 % 0.0 in
13:52 12.6 °F 4.3 °F 1014.4 in West 14.5 mph 30.6 mph 57 % 0.0 in
13:57 12.9 °F 5.3 °F 1014.4 in WSW 19.3 mph 30.6 mph 60 % 0.0 in
14:07 12.2 °F 5.8 °F 1014.8 in WSW 20.9 mph 32.2 mph 65 % 0.0 in
14:17 10.6 °F 6.0 °F 1014.4 in West 11.3 mph 38.6 mph 73 % 0.3 in
14:27 11.1 °F 6.4 °F 1014.8 in WSW 12.9 mph 27.4 mph 73 % 0.3 in
14:32 11.4 °F 6.3 °F 1014.8 in West 19.3 mph 30.6 mph 71 % 0.5 in
14:42 11.5 °F 5.6 °F 1014.8 in West 14.5 mph 40.2 mph 67 % 0.5 in
14:47 11.7 °F 5.3 °F 1014.8 in SW 12.9 mph 40.2 mph 65 % 0.5 in
14:52 12.0 °F 4.9 °F 1014.8 in WSW 12.9 mph 40.2 mph 62 % 0.5 in
14:57 12.1 °F 5.3 °F 1014.8 in WSW 8.0 mph 30.6 mph 63 % 0.5 in
15:02 12.3 °F 5.0 °F 1014.8 in SW 16.1 mph 30.6 mph 61 % 0.5 in
15:12 12.6 °F 4.8 °F 1014.8 in SSW 16.1 mph 29.0 mph 59 % 0.3 in
15:17 12.8 °F 5.2 °F 1015.1 in WSW 24.1 mph 29.0 mph 60 % 0.3 in
15:22 12.7 °F 5.6 °F 1015.1 in SW 27.4 mph 32.2 mph 62 % 0.3 in
15:32 12.2 °F 4.9 °F 1015.1 in SSW 9.7 mph 33.8 mph 61 % 0.0 in
15:42 12.8 °F 5.0 °F 1015.1 in WSW 22.5 mph 29.0 mph 59 % 0.0 in
15:52 12.5 °F 6.1 °F 1015.1 in WNW 22.5 mph 33.8 mph 65 % 0.0 in
15:57 11.6 °F 5.5 °F 1015.1 in West 12.9 mph 33.8 mph 66 % 0.0 in
16:02 11.2 °F 5.7 °F 1015.5 in West 17.7 mph 33.8 mph 69 % 0.0 in
16:07 11.0 °F 5.3 °F 1015.5 in West 14.5 mph 32.2 mph 68 % 0.0 in
16:12 11.1 °F 5.2 °F 1015.5 in West 9.7 mph 32.2 mph 67 % 0.0 in
16:17 11.3 °F 5.2 °F 1015.5 in West 9.7 mph 30.6 mph 66 % 0.0 in
16:22 11.6 °F 5.2 °F 1015.5 in West 16.1 mph 27.4 mph 65 % 0.0 in
16:32 12.1 °F 5.3 °F 1015.5 in SW 4.8 mph 25.7 mph 63 % 0.0 in
16:37 12.6 °F 4.8 °F 1015.5 in West 8.0 mph 25.7 mph 59 % 0.0 in
16:42 12.7 °F 4.4 °F 1015.5 in West 14.5 mph 32.2 mph 57 % 0.0 in
16:47 12.7 °F 4.4 °F 1015.5 in SW 12.9 mph 32.2 mph 57 % 0.0 in
16:57 12.9 °F 5.1 °F 1015.5 in SW 30.6 mph 30.6 mph 59 % 0.0 in
17:02 12.7 °F 5.1 °F 1015.5 in SW 14.5 mph 30.6 mph 60 % 0.0 in
17:12 12.2 °F 5.1 °F 1015.5 in WSW 8.0 mph 30.6 mph 62 % 0.0 in
17:17 12.3 °F 5.0 °F 1015.8 in SW 9.7 mph 30.6 mph 61 % 0.0 in
17:22 12.4 °F 4.4 °F 1015.5 in WSW 14.5 mph 30.6 mph 58 % 0.0 in
17:27 12.5 °F 3.7 °F 1015.8 in WSW 16.1 mph 27.4 mph 55 % 0.0 in
17:32 12.6 °F 4.6 °F 1015.8 in WSW 14.5 mph 27.4 mph 58 % 0.0 in
17:37 12.6 °F 4.1 °F 1015.8 in WNW 16.1 mph 27.4 mph 56 % 0.0 in
17:42 12.7 °F 4.1 °F 1015.8 in West 12.9 mph 20.9 mph 56 % 0.0 in
17:47 12.8 °F 4.2 °F 1015.8 in WNW 4.8 mph 22.5 mph 56 % 0.0 in
17:52 12.8 °F 4.2 °F 1015.8 in West 8.0 mph 22.5 mph 56 % 0.0 in
18:02 12.6 °F 3.8 °F 1015.8 in SW 12.9 mph 16.1 mph 55 % 0.0 in
18:12 12.7 °F 3.9 °F 1015.8 in West 12.9 mph 20.9 mph 55 % 0.0 in
18:17 12.7 °F 4.1 °F 1015.8 in SW 11.3 mph 20.9 mph 56 % 0.0 in
18:22 12.8 °F 4.7 °F 1015.8 in SW 6.4 mph 20.9 mph 58 % 0.0 in
18:27 12.8 °F 5.5 °F 1015.8 in WSW 9.7 mph 20.9 mph 61 % 0.0 in
18:32 12.8 °F 5.5 °F 1015.8 in WSW 8.0 mph 24.1 mph 61 % 0.0 in
18:37 12.9 °F 3.8 °F 1015.8 in WSW 14.5 mph 24.1 mph 54 % 0.0 in
18:42 12.9 °F 3.5 °F 1015.8 in SW 14.5 mph 25.7 mph 53 % 0.0 in
18:47 12.9 °F 3.8 °F 1016.1 in WSW 17.7 mph 30.6 mph 54 % 0.0 in
18:52 12.8 °F 3.7 °F 1016.1 in SW 17.7 mph 30.6 mph 54 % 0.0 in
19:02 12.6 °F 3.3 °F 1015.8 in WSW 16.1 mph 25.7 mph 53 % 0.0 in
19:12 12.5 °F 4.2 °F 1015.8 in SW 16.1 mph 24.1 mph 57 % 0.0 in
19:17 12.4 °F 4.4 °F 1015.8 in SW 11.3 mph 22.5 mph 58 % 0.0 in
19:22 12.3 °F 4.5 °F 1016.1 in WSW 9.7 mph 22.5 mph 59 % 0.0 in
19:32 12.0 °F 4.7 °F 1016.1 in SW 4.8 mph 19.3 mph 61 % 0.0 in
19:42 12.1 °F 5.0 °F 1016.1 in WSW 11.3 mph 12.9 mph 62 % 0.0 in
19:47 11.9 °F 5.1 °F 1016.1 in SW 8.0 mph 12.9 mph 63 % 0.0 in
19:57 11.4 °F 5.1 °F 1016.1 in SSW 4.8 mph 14.5 mph 65 % 0.0 in
20:02 11.1 °F 5.2 °F 1016.1 in South 3.2 mph 14.5 mph 67 % 0.0 in
20:07 10.9 °F 5.0 °F 1016.1 in SW 9.7 mph 14.5 mph 67 % 0.0 in
20:12 10.8 °F 5.3 °F 1016.1 in SW 3.2 mph 14.5 mph 69 % 0.0 in
20:17 10.6 °F 5.1 °F 1016.1 in SW 4.8 mph 14.5 mph 69 % 0.0 in
20:22 10.3 °F 5.3 °F 1016.1 in SSW 4.8 mph 12.9 mph 71 % 0.0 in
20:27 10.1 °F 5.3 °F 1016.5 in South 1.6 mph 9.7 mph 72 % 0.0 in
20:32 9.9 °F 5.3 °F 1016.1 in SSW 3.2 mph 9.7 mph 73 % 0.0 in
20:37 9.8 °F 5.4 °F 1016.5 in SW 3.2 mph 8.0 mph 74 % 0.0 in
20:42 9.7 °F 5.3 °F 1016.1 in SSW 3.2 mph 8.0 mph 74 % 0.0 in
20:47 9.6 °F 5.4 °F 1016.1 in SW 4.8 mph 8.0 mph 75 % 0.0 in
20:52 9.4 °F 5.4 °F 1016.1 in SSW 3.2 mph 9.7 mph 76 % 0.0 in
20:57 9.3 °F 5.5 °F 1016.1 in SSW 1.6 mph 9.7 mph 77 % 0.0 in
21:02 9.2 °F 5.6 °F 1016.1 in Calm   8.0 mph 78 % 0.0 in
21:12 9.1 °F 5.5 °F 1016.1 in SW 1.6 mph 4.8 mph 78 % 0.0 in
21:17 9.0 °F 5.6 °F 1016.5 in Calm   3.2 mph 79 % 0.0 in
21:22 8.9 °F 5.5 °F 1016.5 in Calm   3.2 mph 79 % 0.0 in
21:32 8.8 °F 5.4 °F 1016.5 in SSE 1.6 mph 3.2 mph 79 % 0.0 in
21:37 8.7 °F 5.3 °F 1016.5 in Calm   3.2 mph 79 % 0.0 in
21:42 8.6 °F 5.3 °F 1016.5 in South 1.6 mph 3.2 mph 80 % 0.0 in
21:47 8.4 °F 5.2 °F 1016.8 in SSW 1.6 mph 3.2 mph 80 % 0.0 in
21:52 8.3 °F 5.4 °F 1016.8 in Calm   3.2 mph 82 % 0.0 in
21:57 8.1 °F 5.4 °F 1016.8 in Calm   3.2 mph 83 % 0.0 in
22:02 8.0 °F 5.3 °F 1016.8 in SW 1.6 mph 3.2 mph 83 % 0.0 in
22:12 7.8 °F 4.9 °F 1016.8 in South 1.6 mph 3.2 mph 82 % 0.0 in
22:17 7.7 °F 5.0 °F 1016.5 in Calm   3.2 mph 83 % 0.0 in
22:22 7.6 °F 4.9 °F 1016.8 in Calm   3.2 mph 83 % 0.0 in
22:27 7.4 °F 4.7 °F 1016.8 in Calm   3.2 mph 83 % 0.0 in
22:32 7.3 °F 4.8 °F 1016.5 in SSW 1.6 mph 3.2 mph 84 % 0.0 in
22:42 7.4 °F 5.0 °F 1016.5 in South 3.2 mph 8.0 mph 85 % 0.0 in
22:47 7.4 °F 5.2 °F 1016.5 in SSW 3.2 mph 8.0 mph 86 % 0.0 in
22:57 7.4 °F 5.0 °F 1016.5 in SSW 1.6 mph 6.4 mph 85 % 0.0 in
23:02 7.4 °F 5.2 °F 1016.5 in SSW 1.6 mph 6.4 mph 86 % 0.0 in
23:07 7.4 °F 5.2 °F 1016.8 in SSW 3.2 mph 6.4 mph 86 % 0.0 in
23:12 7.5 °F 5.5 °F 1016.8 in SW 4.8 mph 9.7 mph 87 % 0.0 in
23:17 7.6 °F 5.6 °F 1016.8 in SW 6.4 mph 9.7 mph 87 % 0.0 in
23:22 7.7 °F 5.5 °F 1016.8 in SW 4.8 mph 11.3 mph 86 % 0.0 in
23:32 7.9 °F 5.7 °F 1016.8 in SW 3.2 mph 8.0 mph 86 % 0.0 in
23:42 8.1 °F 5.7 °F 1016.5 in SSW 3.2 mph 8.0 mph 85 % 0.0 in
23:47 8.1 °F 5.7 °F 1016.5 in SW 6.4 mph 8.0 mph 85 % 0.0 in
23:52 8.1 °F 5.7 °F 1016.5 in SW 1.6 mph 8.0 mph 85 % 0.0 in
Meteo18
Compliments of Weather Underground - 4 mb

Script developed by  Jim McMurry - jmcmurry@mwt.net Adapted for the template by  Wim van der Kuil - Leuven-Template.eu

You find our weather info also at:

European Weather Network

Weather Underground

Equipment we use:

Weather-station
Davis Vue

Weather-program
Meteobridge

Weather-server
Raspberry PI 2 B+

Provider
1 and 1

Davis Vue

Meteobridge

Raspberry PI 2 B+

1 and 1